Simultaneous Nadir Overpasses (SNOs) Predictions

Prediction of SNOs between GOES-16 and METOP-A Satellite Orbit:

Table of predicted SNOs for the next 14.0 days since TLE Epoch: 2/4/2022
Index Date Time (GOES-16) GOES-16 Lat,Lon METOP-A Lat,Lon Distance(km) Time Diff (sec)
1 02/05/2022 12:56:57 -0.01, -75.20 -0.37, -73.43 200.73 80
2 02/06/2022 01:17:12 0.01, -75.18 -0.55, -77.67 283.24 80
3 02/08/2022 12:58:49 -0.01, -75.21 -0.34, -73.75 166.04 80
4 02/09/2022 01:18:57 0.00, -75.19 -0.58, -77.95 314.62 80
5 02/11/2022 13:00:40 -0.01, -75.22 -0.27, -74.06 132.29 80
6 02/12/2022 01:20:39 0.00, -75.20 -0.62, -78.23 344.40 80
7 02/14/2022 13:02:29 0.01, -75.24 -0.16, -74.35 99.86 80
8 02/15/2022 01:22:19 -0.01, -75.22 -0.74, -78.49 372.16 80
9 02/17/2022 13:04:19 0.02, -75.27 -0.09, -74.66 69.08 80
10 02/18/2022 01:23:58 -0.03, -75.25 -0.75, -78.76 397.81 80
